Flag for Canada Weather past 2 weeks in Kawartha Lakes, Ontario, Canada

Now
56 °F

Cool.


Feels Like: 54 °F
Forecast: 41 / 63 °F
Wind: 12 mph from Southwest

Location: Lagoon City

Current Time: Sep 17, 2014 at 10:51:09 AM

Latest Report: Sep 17, 2014 at 10:00 AM


Visibility: N/A

Pressure: 29.98 "Hg

Humidity: 75%

Dew point: 49 °F

Location of Kawartha LakesLocation

Historic Weather in Kawartha Lakes — Graph

°F

Kawartha Lakes temperature yesterday

Maximum temperature yesterday: 59 °F (at 5:00 PM)
Minimum temperature yesterday: 53 °F (at 2:00 AM)
Average temperature yesterday: 56 °F

Past Weeks' High & Low Weather Summary

 TemperatureHumidityPressure
High80 °F (Sep 5, 6:00 PM)97% (Sep 10, 2:00 AM)30.31 "Hg (Sep 10, 2:00 AM)
Low43 °F (Sep 14, 3:00 AM)33% (Sep 8, 5:00 PM)29.46 "Hg (Sep 11, 4:00 AM)
Average61 °F77%30.03 "Hg
* Reported Sep 2 9:00 AM — Sep 17 9:00 AM, Kawartha Lakes, Weather by CustomWeather, © 2014

Note: Actual official high and low records may vary slightly from our data, if they occured in-between our weather recording intervals... More about our weather records

Advertising

Kawartha Lakes weather history for previous 24 hours

 ConditionsComfort  
Time TempWeatherWind HumidityBarometerVisibility
9:00 AM
Sep 17
56 °FCool.10 mph81%29.98 "HgN/A
8:00 AM56 °FCool.13 mph78%29.98 "HgN/A
7:00 AM56 °FCool.12 mph77%29.98 "HgN/A
6:00 AM56 °FCool.12 mph78%29.97 "HgN/A
5:00 AM56 °FCool.13 mph81%29.98 "HgN/A
4:00 AM55 °FCool.14 mph81%29.98 "HgN/A
3:00 AM55 °FCool.16 mph79%29.98 "HgN/A
2:00 AM56 °FCool.16 mph76%29.99 "HgN/A
1:00 AM56 °FCool.15 mph74%30.00 "HgN/A
12:00 AM56 °FCool.15 mph70%30.01 "HgN/A
11:00 PM
Sep 16
56 °FCool.10 mph72%30.01 "HgN/A
10:00 PM56 °FCool.10 mph70%30.02 "HgN/A
9:00 PM55 °FCool.10 mph67%30.02 "HgN/A
8:00 PM56 °FRefreshingly cool.9 mph59%30.02 "HgN/A
7:00 PM58 °FCool.15 mph61%30.02 "HgN/A
6:00 PM59 °FRefreshingly cool.10 mph51%30.01 "HgN/A
5:00 PM59 °FRefreshingly cool.13 mph59%30.01 "HgN/A
4:00 PM58 °FRefreshingly cool.12 mph56%30.02 "HgN/A
3:00 PM58 °FRefreshingly cool.14 mph58%30.02 "HgN/A
2:00 PM58 °FRefreshingly cool.15 mph56%30.03 "HgN/A
1:00 PM57 °FRefreshingly cool.15 mph60%30.03 "HgN/A
12:00 PM57 °FCool.10 mph62%30.05 "HgN/A
11:00 AM56 °FCool.8 mph71%30.06 "HgN/A
10:00 AM55 °FCool.10 mph76%30.06 "HgN/A
Weather by CustomWeather, © 2014

See weather overviewHow to use our weather pages